Location: Melbourne
(37.8666°S, 145.1333°E)
Time: 12:35:28
(UTC+11:00)

Iridium 21 - Visible Passes

Search period start: 29 March 2017 00:00
Search period end: 07 April 2017 23:00
Orbit: 776 x 779 km, 86.4° (Epoch: 27 March)

Date Brightness Start Highest point End Pass type
(mag) Time Alt. Az. Time Alt. Az. Time Alt. Az.
29 Mar 8.1 04:38:16 10° SSE 04:41:58 19° ESE 04:45:36 10° ENE visible
29 Mar 5.8 06:17:52 10° SSW 06:22:54 45° W 06:27:53 10° NNW visible
30 Mar 5.4 05:44:09 10° S 05:49:28 86° W 05:54:43 10° N visible
31 Mar 6.3 05:10:46 10° S 05:15:55 50° E 05:21:00 10° NNE visible
31 Mar 6.9 06:52:50 10° SW 06:56:08 17° W 06:59:25 10° WNW visible
01 Apr 7.4 04:37:46 10° SSE 04:42:14 27° E 04:46:38 10° NE visible
01 Apr 6.2 06:18:17 10° SSW 06:22:54 31° W 06:27:28 10° NW visible
02 Apr 8.3 03:05:32 10° SE 03:08:25 15° ESE 03:11:17 10° ENE visible
02 Apr 5.5 04:44:21 10° S 04:49:33 59° W 04:54:41 10° NNW visible
03 Apr 5.6 04:10:46 10° S 04:16:04 74° E 04:17:27 50° NNE visible
03 Apr 7.3 05:54:27 10° WSW 05:56:01 11° WSW 05:57:34 10° W visible
04 Apr 6.8 03:37:31 10° SSE 03:41:57 38° ESE 03:41:57 38° ESE visible
04 Apr 6.7 05:18:55 10° SSW 05:22:19 21° WSW 05:22:19 21° WSW visible
05 Apr 8.0 03:04:44 10° SSE 03:07:06 19° SE 03:07:06 19° SE visible
05 Apr 6.7 04:44:40 10° SSW 04:47:29 28° SW 04:47:29 28° SW visible
06 Apr 7.1 04:10:53 10° S 04:12:57 24° S 04:12:57 24° S visible
07 Apr 7.8 03:37:25 10° S 03:38:37 17° S 03:38:37 17° S visible
